Regional Weather Roundup
Issued by NWS Newport/Morehead, NC

Current Version | Previous Version | Graphics & Text | Print | Product List | Glossary Off
Versions: 1 2 3 4 5 6 7 8 9 10 11 12 13 14 15 16 17 18 19 20 21 22 23 24 25 26 27 28 29 30 31 32 33 34 35 36 37 38 39 40 41 42 43 44 45 46 47 48 49 50

680
ASUS42 KMHX 201413
RWRMHX
WEATHER ROUNDUP FOR EASTERN NORTH CAROLINA
NATIONAL WEATHER SERVICE NEWPORT/MOREHEAD CITY NC
1000 AM EDT FRI APR 20 2018

NOTE: "FAIR" INDICATES FEW OR NO CLOUDS BELOW 12,000 FEET
WITH NO SIGNIFICANT WEATHER AND/OR OBSTRUCTIONS TO VISIBILITY

NCZ015>017-031-032-045>047-102-103-201500-
NORTH COAST

CITY           SKY/WX    TMP DP  RH WIND       PRES   REMARKS
EDENTON        FAIR      52  29  42 N14G20    30.32S
ELIZABETH CITY FAIR      51  28  41 NW17G28   30.31R
KITTY HAWK     FAIR      49  26  39 NW9G18    30.28S
MANTEO         FAIR      50  26  39 N10G21    30.30S

$$

NCZ045>047-081-094-103-104-201500-
CENTRAL COAST

CITY           SKY/WX    TMP DP  RH WIND       PRES   REMARKS
FRISCO         FAIR      54  30  40 N8        30.30R

$$

NCZ095-097-098-100-101-201500-
SOUTHERN COAST

CITY           SKY/WX    TMP DP  RH WIND       PRES   REMARKS
BEAUFORT       FAIR      54  29  38 N12       30.32S
CEDAR ISLAND   NOT AVBL
JACKSONVILLE   FAIR      54  30  40 N14       30.33S
PINEY ISLAND   NOT AVBL
WILMINGTON     FAIR      55  29  36 N13       30.34S


$$

NCZ011>013-027>030-043-044-078>080-089-090>093-098-201500-
COASTAL PLAIN

CITY           SKY/WX    TMP DP  RH WIND       PRES   REMARKS
AHOSKIE        FAIR      48  26  41 NW8       30.34S
CLINTON        FAIR      54  32  43 NE6       30.36S
ELIZABETHTOWN  FAIR      53  28  39 MISG      30.36R
GOLDSBORO      FAIR      54  29  38 NW9       30.33R
GREENVILLE     FAIR      54  30  40 N12       30.34R
HAVELOCK       SUNNY     54  31  41 NW13      30.33R
KENANSVILLE    FAIR      54  28  37 N9        30.35R
KINSTON        FAIR      54  28  37 N10       30.35R
NEW BERN       FAIR      51  30  44 N10       30.34S
RICHLANDS      FAIR      54  28  36 N10       30.34S
ROCKY MOUNT    FAIR      53  30  41 N8        30.34S
WASHINGTON     FAIR      53  30  41 N13       30.33S
WHITEVILLE     FAIR      53  29  39 NE6       30.35S

$$

AMZ130-135-150-152-154-156-158-170-250-252-270-ANZ085-086-088-633-658-670-201500-
MARINE OBSERVATIONS

STATION/POSITION TIME  TEMP    WIND        PRES    WAVE   SWELL
                       AIR SEA DIR/SP/G            HT/PER HT/PER
                 (UTC) (F)     (DEG/KT/KT) (MB)    (FT/S) (FT/S)
CHESAPEAKE LIGHT NOT AVBL
64 E VA BEACH    1350   44 49  340/ 17/ 21 1025.2    6/ 6   2/13
DUCK             1348   46 51  340/ 15/ 18 1025.1
2 E DUCK         1400      50                N/A     4/ 6   2/14
OREGON INLET     1342   49 56  310/ 19/ 24 1025.4
13E OREGON INLT  1348      51                N/A     6/ 7   3/ 7
HATTERAS CG      1348      61  350/ 15/ 20 1025.9
DIAMOND BUOY     1400   51 71  360/ 19/ 27 1026.1
CAPE LOOKOUT     1400          360/ 12/ 16 1026.7
BEAUFORT LAB     1348      62  350/ 12/ 16 1026.7
30 SE NEW RVR IN 1308   53 65   40/ 17/ 25 1026.6
30 SE NEW RVR IN 1400      65                N/A     6/ 5   2/11
27 SE WRIGHTSVLE 1308   53 66   50/ 21/ 33 1026.9
5 SE WRIGHTSVLE  1308   51 60   30/ 14/ 19 1026.6
225 S CAPE HAT   1400   67 71   40/ 19/ 23 1021.4
41 SE CHARLESTON 1400   58 67   40/ 23/ 29 1025.1

$$




USA.gov is the U.S. government's official web portal to all federal, state and local government web resources and services.